11-01-2022, 00:00:05,    182,    0.0,    6.6,   0.00,   0.00, 1019.8,   98.8, -999.0
11-01-2022, 00:00:15,    182,    0.0,    6.5,   0.00,   0.00, 1019.8,   98.6, -999.0
11-01-2022, 00:00:25,    180,    0.0,    6.6,   0.00,   0.00, 1019.8,   98.9, -999.0
11-01-2022, 00:00:35,    180,    0.1,    6.7,   0.00,   0.00, 1019.9,   99.0, -999.0
11-01-2022, 00:00:45,    162,    1.1,    6.6,   0.00,   0.00, 1019.9,   99.1, -999.0
11-01-2022, 00:00:55,    173,    1.5,    6.6,   0.00,   0.00, 1019.9,   99.0, -999.0
11-01-2022, 00:01:05,    195,    1.3,    6.5,   0.00,   0.00, 1019.9,   99.1, -999.0
11-01-2022, 00:01:15,    197,    0.5,    6.6,   0.00,   0.00, 1019.9,   99.1, -999.0
11-01-2022, 00:01:25,    143,    0.2,    6.4,   0.00,   0.00, 1019.8,   98.8, -999.0
11-01-2022, 00:01:35,    183,    1.4,    6.5,   0.00,   0.00, 1020.0,   99.1, -999.0
11-01-2022, 00:01:44,    183,    0.4,    6.5,   0.00,   0.00, 1019.9,   98.9, -999.0
11-01-2022, 00:01:55,    183,    0.2,    6.5,   0.00,   0.00, 1019.9,   98.9, -999.0
11-01-2022, 00:02:05,    182,    0.1,    6.5,   0.00,   0.00, 1019.9,   98.8, -999.0
11-01-2022, 00:02:14,    182,    0.2,    6.5,   0.00,   0.00, 1019.8,   98.8, -999.0
11-01-2022, 00:02:24,    182,    0.1,    6.6,   0.00,   0.00, 1019.9,   98.8, -999.0
11-01-2022, 00:02:35,    182,    0.2,    6.6,   0.00,   0.00, 1019.9,   98.9, -999.0
11-01-2022, 00:02:44,    182,    0.0,    6.5,   0.00,   0.00, 1019.8,   98.7, -999.0
11-01-2022, 00:02:54,    182,    0.0,    6.5,   0.00,   0.00, 1019.8,   98.7, -999.0
11-01-2022, 00:03:04,    182,    0.0,    6.5,   0.00,   0.00, 1019.8,   98.7, -999.0
11-01-2022, 00:03:14,    182,    0.0,    6.4,   0.00,   0.00, 1019.8,   98.7, -999.0
11-01-2022, 00:03:24,    182,    0.0,    6.6,   0.00,   0.00, 1019.9,   98.7, -999.0
11-01-2022, 00:03:34,    182,    0.0,    6.6,   0.00,   0.00, 1019.8,   98.6, -999.0
11-01-2022, 00:03:44,    182,    0.0,    6.6,   0.00,   0.00, 1019.9,   98.8, -999.0
11-01-2022, 00:03:54,    182,    0.7,    6.7,   0.00,   0.00, 1020.0,   99.0, -999.0
11-01-2022, 00:04:04,    181,    0.2,    6.6,   0.00,   0.00, 1019.9,   98.9, -999.0
11-01-2022, 00:04:14,    181,    0.0,    6.6,   0.00,   0.00, 1019.8,   98.8, -999.0
11-01-2022, 00:04:24,    181,    0.0,    6.7,   0.00,   0.00, 1019.8,   98.6, -999.0
11-01-2022, 00:04:34,    181,    0.0,    6.6,   0.00,   0.00, 1019.8,   98.7, -999.0
11-01-2022, 00:04:44,    181,    0.0,    6.4,   0.00,   0.00, 1019.9,   98.9, -999.0
11-01-2022, 00:04:54,    181,    0.1,    6.6,   0.00,   0.00, 1019.9,   98.9, -999.0
11-01-2022, 00:05:04,    181,    0.0,    6.6,   0.00,   0.00, 1019.8,   98.8, -999.0
11-01-2022, 00:05:14,    181,    0.1,    6.6,   0.00,   0.00, 1019.9,   98.8, -999.0
11-01-2022, 00:05:23,    214,    0.5,    6.7,   0.00,   0.00, 1020.0,   99.1, -999.0
11-01-2022, 00:05:33,    214,    0.0,    6.6,   0.00,   0.00, 1019.8,   98.8, -999.0
11-01-2022, 00:05:44,    214,    0.0,    6.6,   0.00,   0.00, 1019.9,   98.8, -999.0
11-01-2022, 00:05:53,    178,    0.1,    6.6,   0.00,   0.00, 1019.9,   98.8, -999.0
11-01-2022, 00:06:03,    178,    0.0,    6.5,   0.00,   0.00, 1019.8,   98.7, -999.0
11-01-2022, 00:06:13,    178,    0.0,    6.5,   0.00,   0.00, 1019.9,   98.7, -999.0
11-01-2022, 00:06:23,    147,    1.1,    6.7,   0.00,   0.00, 1020.0,   99.0, -999.0
11-01-2022, 00:06:33,    148,    1.9,    6.6,   0.00,   0.00, 1020.0,   99.1, -999.0
11-01-2022, 00:06:43,    145,    1.5,    6.7,   0.00,   0.00, 1020.0,   99.1, -999.0
11-01-2022, 00:06:53,    165,    0.8,    6.7,   0.00,   0.00, 1020.0,   99.1, -999.0
11-01-2022, 00:07:03,    164,    1.2,    6.7,   0.00,   0.00, 1020.0,   99.1, -999.0
11-01-2022, 00:07:13,    182,    1.1,    6.7,   0.00,   0.00, 1020.1,   99.0, -999.0
11-01-2022, 00:07:23,    183,    0.0,    6.6,   0.00,   0.00, 1019.9,   98.7, -999.0
11-01-2022, 00:07:33,    188,    0.4,    6.7,   0.00,   0.00, 1020.0,   99.0, -999.0
11-01-2022, 00:07:43,    188,    0.0,    6.6,   0.00,   0.00, 1019.9,   98.7, -999.0
11-01-2022, 00:07:53,    224,    0.3,    6.6,   0.00,   0.00, 1020.0,   98.8, -999.0
11-01-2022, 00:08:03,    197,    0.4,    6.6,   0.00,   0.00, 1020.0,   98.9, -999.0
11-01-2022, 00:08:13,    232,    0.0,    6.6,   0.00,   0.00, 1019.9,   98.8, -999.0
11-01-2022, 00:08:23,    200,    0.2,    6.6,   0.00,   0.00, 1020.0,   98.9, -999.0
11-01-2022, 00:08:32,    200,    0.1,    6.5,   0.00,   0.00, 1020.0,   98.8, -999.0
11-01-2022, 00:08:42,    167,    0.3,    6.6,   0.00,   0.00, 1020.0,   98.9, -999.0
11-01-2022, 00:08:53,    184,    0.6,    6.7,   0.00,   0.00, 1020.0,   98.9, -999.0
11-01-2022, 00:09:02,    195,    0.4,    6.6,   0.00,   0.00, 1020.0,   98.9, -999.0
11-01-2022, 00:09:12,    188,    0.0,    6.6,   0.00,   0.00, 1019.9,   98.8, -999.0
11-01-2022, 00:09:23,    175,    0.6,    6.7,   0.00,   0.00, 1020.0,   98.9, -999.0
11-01-2022, 00:09:32,    169,    0.4,    6.7,   0.00,   0.00, 1020.0,   99.0, -999.0
11-01-2022, 00:09:42,    168,    0.0,    6.6,   0.00,   0.00, 1019.9,   98.7, -999.0
11-01-2022, 00:09:52,    176,    0.1,    6.6,   0.00,   0.00, 1020.0,   98.7, -999.0
11-01-2022, 00:10:02,    175,    0.0,    6.5,   0.00,   0.00, 1019.9,   98.7, -999.0
11-01-2022, 00:10:12,    175,    0.3,    6.6,   0.00,   0.00, 1020.0,   99.1, -999.0
11-01-2022, 00:10:22,    175,    0.0,    6.6,   0.00,   0.00, 1019.9,   98.7, -999.0
11-01-2022, 00:10:32,    175,    0.0,    6.6,   0.00,   0.00, 1019.9,   98.7, -999.0
11-01-2022, 00:10:42,    175,    0.0,    6.6,   0.00,   0.00, 1019.9,   98.6, -999.0
11-01-2022, 00:10:52,    175,    0.0,    6.4,   0.00,   0.00, 1019.9,   98.7, -999.0
11-01-2022, 00:11:02,    175,    0.0,    6.5,   0.00,   0.00, 1019.9,   98.7, -999.0
11-01-2022, 00:11:12,    175,    0.0,    6.6,   0.00,   0.00, 1019.9,   98.7, -999.0
11-01-2022, 00:11:22,    175,    0.0,    6.6,   0.00,   0.00, 1020.0,   98.7, -999.0
11-01-2022, 00:11:32,    175,    0.0,    6.6,   0.00,   0.00, 1019.9,   98.7, -999.0
11-01-2022, 00:11:41,    175,    0.0,    6.6,   0.00,   0.00, 1019.9,   98.7, -999.0
11-01-2022, 00:11:52,    175,    0.0,    6.6,   0.00,   0.00, 1019.9,   98.6, -999.0
11-01-2022, 00:12:02,    175,    0.0,    6.6,   0.00,   0.00, 1019.9,   98.6, -999.0
11-01-2022, 00:12:11,    175,    0.0,    6.6,   0.00,   0.00, 1019.9,   98.7, -999.0
11-01-2022, 00:12:21,    175,    0.0,    6.6,   0.00,   0.00, 1019.9,   98.6, -999.0
11-01-2022, 00:12:32,    175,    0.0,    6.6,   0.00,   0.00, 1019.9,   98.7, -999.0
11-01-2022, 00:12:41,    175,    0.0,    6.6,   0.00,   0.00, 1019.9,   98.7, -999.0
11-01-2022, 00:12:51,    175,    0.0,    6.6,   0.00,   0.00, 1019.9,   98.6, -999.0
11-01-2022, 00:13:01,    175,    0.1,    6.6,   0.00,   0.00, 1020.0,   98.9, -999.0
11-01-2022, 00:13:11,    175,    0.9,    6.7,   0.00,   0.00, 1020.0,   99.0, -999.0
11-01-2022, 00:13:21,    175,    0.3,    6.7,   0.00,   0.00, 1020.0,   98.9, -999.0
11-01-2022, 00:13:31,    175,    0.2,    6.7,   0.00,   0.00, 1019.9,   98.8, -999.0
11-01-2022, 00:13:41,    175,    0.2,    6.7,   0.00,   0.00, 1020.0,   99.1, -999.0
11-01-2022, 00:13:51,    174,    0.0,    6.6,   0.00,   0.00, 1019.9,   98.6, -999.0
11-01-2022, 00:14:01,    198,    0.4,    6.7,   0.00,   0.00, 1020.0,   98.9, -999.0
11-01-2022, 00:14:11,    160,    1.4,    6.7,   0.00,   0.00, 1020.0,   99.0, -999.0
11-01-2022, 00:14:21,    170,    1.3,    6.7,   0.00,   0.00, 1020.1,   99.0, -999.0
11-01-2022, 00:14:31,    163,    1.2,    6.6,   0.00,   0.00, 1020.1,   99.1, -999.0
11-01-2022, 00:14:41,    163,    0.0,    6.6,   0.00,   0.00, 1020.0,   98.7, -999.0
11-01-2022, 00:14:50,    163,    0.0,    6.5,   0.00,   0.00, 1019.9,   98.7, -999.0
11-01-2022, 00:15:01,    188,    0.2,    6.5,   0.00,   0.00, 1020.0,   98.8, -999.0
11-01-2022, 00:15:11,    188,    0.2,    6.7,   0.00,   0.00, 1020.0,   98.9, -999.0
11-01-2022, 00:15:20,    188,    0.0,    6.6,   0.00,   0.00, 1019.9,   98.6, -999.0
11-01-2022, 00:15:30,    188,    0.0,    6.6,   0.00,   0.00, 1019.9,   98.6, -999.0
11-01-2022, 00:15:40,    202,    0.0,    6.6,   0.00,   0.00, 1019.9,   98.8, -999.0
11-01-2022, 00:15:50,    173,    0.3,    6.6,   0.00,   0.00, 1019.9,   98.8, -999.0
11-01-2022, 00:16:00,    194,    0.3,    6.6,   0.00,   0.00, 1020.0,   98.9, -999.0
11-01-2022, 00:16:10,    194,    0.1,    6.6,   0.00,   0.00, 1020.0,   98.9, -999.0
11-01-2022, 00:16:20,    194,    0.0,    6.5,   0.00,   0.00, 1019.9,   98.9, -999.0
11-01-2022, 00:16:30,    194,    0.0,    6.6,   0.00,   0.00, 1019.9,   98.7, -999.0
11-01-2022, 00:16:40,    194,    0.0,    6.6,   0.00,   0.00, 1019.9,   98.7, -999.0
11-01-2022, 00:16:50,    151,    1.1,    6.6,   0.00,   0.00, 1020.0,   98.9, -999.0
11-01-2022, 00:17:00,    151,    0.8,    6.6,   0.00,   0.00, 1020.0,   99.0, -999.0
11-01-2022, 00:17:10,    158,    0.0,    6.6,   0.00,   0.00, 1019.9,   98.7, -999.0
11-01-2022, 00:17:20,    158,    0.0,    6.6,   0.00,   0.00, 1019.9,   98.6, -999.0
11-01-2022, 00:17:30,    158,    0.0,    6.6,   0.00,   0.00, 1019.9,   98.7, -999.0
11-01-2022, 00:17:40,    156,    0.0,    6.6,   0.00,   0.00, 1019.9,   98.7, -999.0
11-01-2022, 00:17:50,    158,    0.0,    6.6,   0.00,   0.00, 1019.9,   98.7, -999.0
11-01-2022, 00:17:59,    159,    0.0,    6.7,   0.00,   0.00, 1020.0,   98.7, -999.0
11-01-2022, 00:18:10,    159,    0.0,    6.6,   0.00,   0.00, 1020.0,   98.7, -999.0
11-01-2022, 00:18:20,    159,    0.0,    6.6,   0.00,   0.00, 1019.9,   98.6, -999.0
11-01-2022, 00:18:29,    156,    0.6,    6.7,   0.00,   0.00, 1020.0,   98.9, -999.0
11-01-2022, 00:18:40,    156,    0.0,    6.7,   0.00,   0.00, 1019.9,   98.7, -999.0
11-01-2022, 00:18:49,    156,    0.0,    6.7,   0.00,   0.00, 1019.9,   98.7, -999.0
11-01-2022, 00:18:59,    156,    0.0,    6.6,   0.00,   0.00, 1019.9,   98.7, -999.0
11-01-2022, 00:19:09,    156,    0.0,    6.7,   0.00,   0.00, 1019.9,   98.7, -999.0
11-01-2022, 00:19:19,    156,    0.0,    6.6,   0.00,   0.00, 1019.9,   98.7, -999.0
11-01-2022, 00:19:29,    137,    1.2,    6.7,   0.00,   0.00, 1020.0,   98.9, -999.0
11-01-2022, 00:19:39,    160,    1.3,    6.7,   0.00,   0.00, 1020.1,   99.1, -999.0
11-01-2022, 00:19:49,    177,    0.6,    6.7,   0.00,   0.00, 1020.1,   99.1, -999.0
11-01-2022, 00:19:59,    176,    0.3,    6.6,   0.00,   0.00, 1020.0,   98.8, -999.0
11-01-2022, 00:20:09,    176,    0.0,    6.5,   0.00,   0.00, 1020.0,   98.8, -999.0
11-01-2022, 00:20:19,    176,    0.0,    6.5,   0.00,   0.00, 1019.9,   98.7, -999.0
11-01-2022, 00:20:29,    177,    0.0,    6.6,   0.00,   0.00, 1019.9,   98.7, -999.0
11-01-2022, 00:20:39,    176,    0.0,    6.6,   0.00,   0.00, 1019.9,   98.7, -999.0
11-01-2022, 00:20:49,    176,    0.0,    6.5,   0.00,   0.00, 1019.9,   98.7, -999.0
11-01-2022, 00:20:59,    176,    0.0,    6.6,   0.00,   0.00, 1019.9,   98.7, -999.0
11-01-2022, 00:21:09,    177,    0.0,    6.6,   0.00,   0.00, 1020.0,   98.7, -999.0
11-01-2022, 00:21:19,    176,    0.0,    6.5,   0.00,   0.00, 1020.0,   98.6, -999.0
11-01-2022, 00:21:29,    176,    0.0,    6.5,   0.00,   0.00, 1020.0,   98.6, -999.0
11-01-2022, 00:21:38,    176,    0.0,    6.6,   0.00,   0.00, 1019.9,   98.6, -999.0
11-01-2022, 00:21:49,    177,    0.0,    6.5,   0.00,   0.00, 1020.0,   98.7, -999.0
11-01-2022, 00:21:58,    179,    0.1,    6.6,   0.00,   0.00, 1020.0,   98.8, -999.0
11-01-2022, 00:22:08,    172,    1.3,    6.7,   0.00,   0.00, 1020.1,   99.0, -999.0
11-01-2022, 00:22:18,    148,    0.8,    6.7,   0.00,   0.00, 1020.1,   99.0, -999.0
11-01-2022, 00:22:28,    212,    0.4,    6.7,   0.00,   0.00, 1020.1,   99.0, -999.0
11-01-2022, 00:22:38,    214,    0.2,    6.6,   0.00,   0.00, 1020.0,   98.8, -999.0
11-01-2022, 00:22:48,    214,    0.0,    6.6,   0.00,   0.00, 1020.0,   98.7, -999.0
11-01-2022, 00:22:58,    192,    0.9,    6.7,   0.00,   0.00, 1020.1,   99.0, -999.0
11-01-2022, 00:23:08,    191,    0.1,    6.7,   0.00,   0.01, 1020.1,   98.9, -999.0
11-01-2022, 00:23:18,    191,    0.1,    6.6,   0.00,   0.00, 1020.1,   99.2, -999.0
11-01-2022, 00:23:28,    191,    0.0,    6.6,   0.00,   0.00, 1020.0,   98.7, -999.0
11-01-2022, 00:23:38,    191,    0.0,    6.6,   0.00,   0.00, 1020.0,   98.7, -999.0
11-01-2022, 00:23:48,    191,    0.1,    6.6,   0.00,   0.00, 1020.0,   98.9, -999.0
11-01-2022, 00:23:58,    191,    0.0,    6.6,   0.00,   0.00, 1020.0,   98.6, -999.0
11-01-2022, 00:24:08,    191,    0.5,    6.6,   0.00,   0.00, 1020.1,   99.0, -999.0
11-01-2022, 00:24:18,    191,    0.0,    6.7,   0.00,   0.00, 1020.0,   98.8, -999.0
11-01-2022, 00:24:28,    191,    0.0,    6.6,   0.00,   0.00, 1020.0,   98.7, -999.0
11-01-2022, 00:24:38,    191,    0.0,    6.6,   0.00,   0.00, 1020.0,   98.8, -999.0
11-01-2022, 00:24:47,    190,    0.0,    6.6,   0.00,   0.00, 1020.0,   98.6, -999.0
11-01-2022, 00:24:58,    190,    0.1,    6.8,   0.00,   0.00, 1020.1,   98.9, -999.0
11-01-2022, 00:25:08,    190,    0.7,    6.7,   0.00,   0.00, 1020.1,   98.9, -999.0
11-01-2022, 00:25:17,    190,    0.4,    6.7,   0.00,   0.00, 1020.1,   99.0, -999.0
11-01-2022, 00:25:28,    190,    0.0,    6.5,   0.00,   0.00, 1020.0,   98.8, -999.0
11-01-2022, 00:25:37,    190,    0.0,    6.5,   0.00,   0.00, 1020.0,   98.8, -999.0
11-01-2022, 00:25:47,    190,    0.0,    6.6,   0.00,   0.00, 1020.0,   98.8, -999.0
11-01-2022, 00:25:57,    192,    0.0,    6.6,   0.00,   0.00, 1020.0,   98.7, -999.0
11-01-2022, 00:26:07,    194,    0.0,    6.6,   0.00,   0.00, 1020.0,   98.7, -999.0
11-01-2022, 00:26:17,    142,    0.6,    6.6,   0.00,   0.00, 1020.1,   99.1, -999.0
11-01-2022, 00:26:27,    143,    0.1,    6.6,   0.00,   0.00, 1020.1,   98.9, -999.0
11-01-2022, 00:26:37,    143,    0.2,    6.7,   0.00,   0.00, 1020.1,   99.0, -999.0
11-01-2022, 00:26:47,    154,    0.5,    6.6,   0.00,   0.00, 1020.1,   98.9, -999.0
11-01-2022, 00:26:57,    155,    0.4,    6.7,   0.00,   0.00, 1020.1,   99.1, -999.0
11-01-2022, 00:27:07,    155,    0.1,    6.6,   0.00,   0.00, 1020.1,   99.0, -999.0
11-01-2022, 00:27:17,    155,    0.0,    6.6,   0.00,   0.00, 1020.0,   98.7, -999.0
11-01-2022, 00:27:27,    172,    1.3,    6.6,   0.00,   0.00, 1020.1,   99.0, -999.0
11-01-2022, 00:27:37,    158,    1.2,    6.7,   0.00,   0.00, 1020.1,   99.0, -999.0
11-01-2022, 00:27:46,    158,    0.6,    6.6,   0.00,   0.00, 1020.1,   98.9, -999.0
11-01-2022, 00:27:57,    158,    0.0,    6.5,   0.00,   0.00, 1020.0,   98.7, -999.0
11-01-2022, 00:28:07,    157,    0.1,    6.6,   0.00,   0.00, 1020.0,   98.9, -999.0
11-01-2022, 00:28:16,    157,    0.0,    6.6,   0.00,   0.00, 1020.0,   98.7, -999.0
11-01-2022, 00:28:26,    157,    0.0,    6.6,   0.00,   0.00, 1020.0,   98.7, -999.0
11-01-2022, 00:28:37,    158,    0.0,    6.6,   0.00,   0.00, 1020.0,   98.7, -999.0
11-01-2022, 00:28:46,    157,    0.0,    6.6,   0.00,   0.00, 1020.0,   98.6, -999.0
11-01-2022, 00:28:56,    157,    0.0,    6.7,   0.00,   0.00, 1020.0,   98.6, -999.0
11-01-2022, 00:29:06,    158,    0.0,    6.6,   0.00,   0.00, 1020.0,   98.6, -999.0
11-01-2022, 00:29:16,    158,    0.0,    6.6,   0.00,   0.00, 1020.0,   98.7, -999.0
11-01-2022, 00:29:26,    157,    0.0,    6.6,   0.00,   0.00, 1020.0,   98.7, -999.0
11-01-2022, 00:29:36,    158,    0.2,    6.7,   0.00,   0.00, 1020.2,   99.0, -999.0
11-01-2022, 00:29:46,    173,    0.4,    6.7,   0.00,   0.00, 1020.1,   98.9, -999.0
11-01-2022, 00:29:56,    173,    0.0,    6.6,   0.00,   0.00, 1020.0,   98.6, -999.0
11-01-2022, 00:30:06,    173,    0.0,    6.6,   0.00,   0.00, 1020.0,   98.7, -999.0
11-01-2022, 00:30:16,    172,    0.0,    6.6,   0.00,   0.00, 1020.0,   98.6, -999.0
11-01-2022, 00:30:26,    173,    0.0,    6.6,   0.00,   0.00, 1020.0,   98.6, -999.0
11-01-2022, 00:30:36,    173,    0.0,    6.7,   0.00,   0.00, 1020.1,   98.9, -999.0
11-01-2022, 00:30:46,    173,    0.0,    6.6,   0.00,   0.00, 1020.0,   98.6, -999.0
11-01-2022, 00:30:55,    173,    0.0,    6.6,   0.00,   0.00, 1020.0,   98.6, -999.0
11-01-2022, 00:31:06,    173,    0.0,    6.6,   0.00,   0.00, 1020.0,   98.7, -999.0
11-01-2022, 00:31:16,    173,    0.0,    6.7,   0.00,   0.00, 1020.1,   98.7, -999.0
11-01-2022, 00:31:25,    173,    0.0,    6.6,   0.00,   0.00, 1020.1,   98.7, -999.0
11-01-2022, 00:31:35,    173,    0.1,    6.7,   0.00,   0.00, 1020.1,   98.9, -999.0
11-01-2022, 00:31:46,    173,    0.2,    6.7,   0.00,   0.00, 1020.1,   98.9, -999.0
11-01-2022, 00:31:55,    172,    0.0,    6.7,   0.00,   0.00, 1020.0,   98.7, -999.0
11-01-2022, 00:32:05,    172,    0.0,    6.6,   0.00,   0.00, 1020.0,   98.6, -999.0
11-01-2022, 00:32:15,    173,    0.0,    6.5,   0.00,   0.00, 1020.0,   98.6, -999.0
11-01-2022, 00:32:25,    172,    0.0,    6.6,   0.00,   0.00, 1020.0,   98.7, -999.0
11-01-2022, 00:32:35,    172,    0.0,    6.6,   0.00,   0.00, 1020.0,   98.7, -999.0
11-01-2022, 00:32:45,    172,    0.0,    6.6,   0.00,   0.00, 1020.0,   98.7, -999.0
11-01-2022, 00:32:55,    172,    0.0,    6.5,   0.00,   0.00, 1020.0,   98.7, -999.0
11-01-2022, 00:33:05,    172,    0.0,    6.5,   0.00,   0.00, 1020.0,   98.7, -999.0
11-01-2022, 00:33:15,    172,    0.0,    6.6,   0.00,   0.00, 1020.0,   98.7, -999.0
11-01-2022, 00:33:25,    172,    0.0,    6.6,   0.00,   0.00, 1020.0,   98.7, -999.0
11-01-2022, 00:33:35,    172,    0.0,    6.6,   0.00,   0.00, 1020.0,   98.7, -999.0
11-01-2022, 00:33:45,    172,    0.0,    6.6,   0.00,   0.00, 1020.0,   98.6, -999.0
11-01-2022, 00:33:55,    172,    0.0,    6.6,   0.00,   0.00, 1020.0,   98.7, -999.0
11-01-2022, 00:34:04,    172,    0.0,    6.6,   0.00,   0.00, 1020.0,   98.7, -999.0
11-01-2022, 00:34:15,    172,    0.0,    6.6,   0.00,   0.00, 1020.0,   98.7, -999.0
11-01-2022, 00:34:25,    172,    0.0,    6.6,   0.00,   0.00, 1020.0,   98.7, -999.0
11-01-2022, 00:34:34,    170,    0.0,    6.6,   0.00,   0.00, 1020.0,   98.7, -999.0
11-01-2022, 00:34:45,    182,    1.5,    6.7,   0.00,   0.00, 1020.2,   99.3, -999.0
11-01-2022, 00:34:55,    145,    1.9,    6.7,   0.00,   0.00, 1020.1,   99.1, -999.0
11-01-2022, 00:35:04,    145,    1.4,    6.7,   0.00,   0.00, 1020.1,   99.0, -999.0
11-01-2022, 00:35:14,    145,    0.8,    6.7,   0.00,   0.00, 1020.1,   99.0, -999.0
11-01-2022, 00:35:24,    144,    0.3,    6.7,   0.00,   0.00, 1020.1,   98.9, -999.0
11-01-2022, 00:35:34,    145,    0.0,    6.6,   0.00,   0.00, 1020.0,   98.7, -999.0
11-01-2022, 00:35:44,    144,    0.0,    6.7,   0.00,   0.00, 1020.1,   98.8, -999.0
11-01-2022, 00:35:54,    145,    0.0,    6.7,   0.00,   0.00, 1020.0,   98.6, -999.0
11-01-2022, 00:36:04,    145,    0.0,    6.6,   0.00,   0.00, 1020.0,   98.7, -999.0
11-01-2022, 00:36:14,    144,    0.0,    6.5,   0.00,   0.00, 1020.0,   98.8, -999.0
11-01-2022, 00:36:24,    145,    0.0,    6.6,   0.00,   0.00, 1020.0,   98.6, -999.0
11-01-2022, 00:36:34,    144,    0.2,    6.6,   0.00,   0.00, 1020.1,   98.8, -999.0
11-01-2022, 00:36:44,    144,    0.2,    6.7,   0.00,   0.00, 1020.1,   99.0, -999.0
11-01-2022, 00:36:54,    146,    0.3,    6.6,   0.00,   0.00, 1020.1,   98.9, -999.0
11-01-2022, 00:37:04,    147,    0.7,    6.7,   0.00,   0.00, 1020.1,   99.1, -999.0
11-01-2022, 00:37:13,    189,    0.9,    6.7,   0.00,   0.00, 1020.1,   99.0, -999.0
11-01-2022, 00:37:24,    189,    0.3,    6.7,   0.00,   0.00, 1020.1,   99.1, -999.0
11-01-2022, 00:37:34,    189,    0.2,    6.7,   0.00,   0.00, 1020.1,   99.0, -999.0
11-01-2022, 00:37:43,    189,    0.0,    6.6,   0.00,   0.00, 1020.0,   98.8, -999.0
11-01-2022, 00:37:54,    188,    0.1,    6.6,   0.00,   0.00, 1020.0,   98.8, -999.0
11-01-2022, 00:38:04,    188,    0.0,    6.5,   0.00,   0.00, 1020.0,   98.8, -999.0
11-01-2022, 00:38:13,    188,    0.0,    6.7,   0.00,   0.00, 1020.0,   98.7, -999.0
11-01-2022, 00:38:23,    189,    0.0,    6.7,   0.00,   0.00, 1020.0,   98.8, -999.0
11-01-2022, 00:38:33,    188,    0.2,    6.7,   0.00,   0.00, 1020.1,   98.8, -999.0
11-01-2022, 00:38:43,    188,    0.1,    6.6,   0.00,   0.00, 1020.0,   98.7, -999.0
11-01-2022, 00:38:53,    188,    0.0,    6.6,   0.00,   0.00, 1020.0,   98.6, -999.0
11-01-2022, 00:39:03,    188,    0.1,    6.6,   0.00,   0.00, 1020.1,   98.9, -999.0
11-01-2022, 00:39:13,    188,    0.0,    6.6,   0.00,   0.00, 1020.0,   98.8, -999.0
11-01-2022, 00:39:23,    188,    1.2,    6.7,   0.00,   0.00, 1020.1,   98.9, -999.0
11-01-2022, 00:39:33,    187,    0.5,    6.8,   0.00,   0.00, 1020.1,   99.0, -999.0
11-01-2022, 00:39:43,    187,    0.0,    6.6,   0.00,   0.00, 1020.0,   98.6, -999.0
11-01-2022, 00:39:53,    187,    0.0,    6.6,   0.00,   0.00, 1020.0,   98.7, -999.0
11-01-2022, 00:40:03,    187,    0.0,    6.6,   0.00,   0.00, 1020.0,   98.7, -999.0
11-01-2022, 00:40:13,    187,    0.1,    6.7,   0.00,   0.00, 1020.0,   98.8, -999.0
11-01-2022, 00:40:23,    187,    0.0,    6.6,   0.00,   0.00, 1020.0,   98.7, -999.0
11-01-2022, 00:40:33,    187,    0.0,    6.6,   0.00,   0.00, 1020.0,   98.7, -999.0
11-01-2022, 00:40:43,    130,    0.3,    6.7,   0.00,   0.00, 1020.1,   98.9, -999.0
11-01-2022, 00:40:52,    151,    0.9,    6.7,   0.00,   0.00, 1020.1,   99.1, -999.0
11-01-2022, 00:41:03,    150,    0.2,    6.7,   0.00,   0.00, 1020.1,   98.8, -999.0
11-01-2022, 00:41:13,    157,    0.3,    6.6,   0.00,   0.00, 1020.1,   98.9, -999.0
11-01-2022, 00:41:22,    162,    0.0,    6.5,   0.00,   0.00, 1020.0,   98.7, -999.0
11-01-2022, 00:41:32,    169,    0.0,    6.6,   0.00,   0.00, 1020.0,   98.7, -999.0
11-01-2022, 00:41:42,    157,    0.6,    6.7,   0.00,   0.00, 1020.2,   99.0, -999.0
11-01-2022, 00:41:52,    191,    0.4,    6.6,   0.00,   0.00, 1020.1,   99.1, -999.0
11-01-2022, 00:42:02,    192,    0.1,    6.6,   0.00,   0.00, 1020.1,   98.9, -999.0
11-01-2022, 00:42:12,    192,    0.0,    6.6,   0.00,   0.00, 1020.0,   98.8, -999.0
11-01-2022, 00:42:22,    159,    0.3,    6.6,   0.00,   0.00, 1020.1,   99.0, -999.0
11-01-2022, 00:42:32,    159,    0.0,    6.5,   0.00,   0.00, 1020.0,   98.8, -999.0
11-01-2022, 00:42:42,    159,    0.0,    6.5,   0.00,   0.00, 1020.0,   98.7, -999.0
11-01-2022, 00:42:52,    159,    0.0,    6.5,   0.00,   0.00, 1020.0,   98.7, -999.0
11-01-2022, 00:43:02,    159,    0.0,    6.6,   0.00,   0.00, 1020.0,   98.7, -999.0
11-01-2022, 00:43:12,    159,    0.0,    6.5,   0.00,   0.00, 1020.0,   98.8, -999.0
11-01-2022, 00:43:22,    159,    1.1,    6.6,   0.00,   0.00, 1020.1,   99.0, -999.0
11-01-2022, 00:43:32,    159,    0.9,    6.6,   0.00,   0.00, 1020.2,   99.1, -999.0
11-01-2022, 00:43:42,    158,    0.8,    6.7,   0.00,   0.00, 1020.2,   99.0, -999.0
11-01-2022, 00:43:52,    158,    0.1,    6.6,   0.00,   0.00, 1020.1,   98.9, -999.0
11-01-2022, 00:44:02,    159,    0.0,    6.6,   0.00,   0.00, 1020.0,   98.7, -999.0
11-01-2022, 00:44:12,    158,    0.0,    6.6,   0.00,   0.00, 1020.0,   98.8, -999.0
11-01-2022, 00:44:21,    158,    0.0,    6.5,   0.00,   0.00, 1020.0,   98.7, -999.0
11-01-2022, 00:44:31,    170,    0.0,    6.5,   0.00,   0.00, 1020.0,   98.6, -999.0
11-01-2022, 00:44:42,    170,    0.0,    6.5,   0.00,   0.00, 1020.0,   98.7, -999.0
11-01-2022, 00:44:51,    170,    0.0,    6.5,   0.00,   0.00, 1020.0,   98.7, -999.0
11-01-2022, 00:45:01,    170,    0.0,    6.5,   0.00,   0.00, 1020.0,   98.7, -999.0
11-01-2022, 00:45:11,    170,    0.0,    6.6,   0.00,   0.00, 1020.0,   98.7, -999.0
11-01-2022, 00:45:21,    170,    0.0,    6.4,   0.00,   0.00, 1020.0,   98.7, -999.0
11-01-2022, 00:45:31,    167,    0.5,    6.6,   0.00,   0.00, 1020.1,   99.0, -999.0
11-01-2022, 00:45:41,    172,    0.2,    6.7,   0.00,   0.00, 1020.1,   98.9, -999.0
11-01-2022, 00:45:51,    224,    0.0,    6.6,   0.00,   0.00, 1020.0,   98.8, -999.0
11-01-2022, 00:46:01,    208,    0.0,    6.6,   0.00,   0.00, 1020.0,   98.7, -999.0
11-01-2022, 00:46:11,    208,    0.0,    6.6,   0.00,   0.00, 1020.0,   98.7, -999.0
11-01-2022, 00:46:21,    208,    0.0,    6.7,   0.00,   0.00, 1020.0,   98.7, -999.0
11-01-2022, 00:46:31,    207,    0.0,    6.6,   0.00,   0.00, 1020.0,   98.7, -999.0
11-01-2022, 00:46:41,    208,    0.0,    6.5,   0.00,   0.00, 1020.0,   98.6, -999.0